(102651) = 1999 VS51 = 2001 CS40

Discovered at Socorro on 1999-11-03 by LINEAR.

Orbit

Orbit type: Main Belt

Note: WebGL enabled browser required.

epoch2023-09-13.0
epoch JD2460200.5
perihelion date2022-12-07.52220
perihelion JD2459921.02220
argument of perihelion (°)240.70273
ascending node (°)33.63613
inclination (°)15.06381
eccentricity0.1709880
perihelion distance (AU)2.1153704
Tisserand w.r.t. Jupiter3.4
ΔV w.r.t. Earth (km/sec)10.2
semimajor axis (AU)2.5516765
mean anomaly (°)67.57915
mean daily motion (°/day)0.24180510
aphelion distance (AU)2.988
period (years)4.08
P-vector [x]0.05905547
P-vector [y]-0.80180412
P-vector [z]-0.59466176
Q-vector [x]0.98781981
Q-vector [y]0.13284495
Q-vector [z]-0.08101995
absolute magnitude15.04
phase slope0.15
uncertainty0
referenceMPEC 2024-A55
observations used1554
oppositions18
arc length (days)8822
first opposition used1999
last opposition used2023
residual rms (arc-secs)0.62
perturbers coarse indicatorM-v
perturbers precise indicator003Ek
first observation date used1999-10-12.0
last observation date used2023-12-07.0
computer nameMPCLINUX
JD of orbit computation2456877.928308
perihelion JD uncertainty (days)8.6832E-05
argument of perihelion uncertainty (°)2.5582E-05
ascending node uncertainty (°)1.3041E-05
inclination uncertainty (°)7.7899E-06
eccentricity uncertainty 5.6093E-08
perihelion distance uncertainty (AU)1.5068E-07
Minimum Orbit Intersection Distances (in AU)
for orbit epoch: 2460200.5, reference: E2024-A55
Mercury1.65754
Venus1.4122
Earth1.14288
Mars0.66732
Jupiter2.18974
Saturn6.18548
Uranus15.7844
Neptune27.0391

Observations

1590 total observations over interval: 1999 10 12.27762 – 2023 12 07.146324
These data are available for download (format description).

Date (UT) J2000 RA J2000 Dec Magn Location Ref
1999 10 12.27762 03 39 24.83 +23 54 11.0 19.4   704 – Lincoln Laboratory ETS, New Mexico MPS 13977
1999 10 12.29129 03 39 24.39 +23 54 14.6 19.7   704 – Lincoln Laboratory ETS, New Mexico MPS 13977
1999 10 12.30494 03 39 23.66 +23 54 17.0 19.6   704 – Lincoln Laboratory ETS, New Mexico MPS 13977
1999 10 12.31909 03 39 23.16 +23 54 20.3 19.8   704 – Lincoln Laboratory ETS, New Mexico MPS 13977
1999 10 13.40974 03 38 38.25 +23 58 02.2 19.1   704 – Lincoln Laboratory ETS, New Mexico MPS 13977
1999 10 13.42567 03 38 37.57 +23 58 05.7 19.7   704 – Lincoln Laboratory ETS, New Mexico MPS 13977
1999 10 13.44125 03 38 36.88 +23 58 09.1 19.3   704 – Lincoln Laboratory ETS, New Mexico MPS 13977
1999 10 13.45685 03 38 36.18 +23 58 11.6 19.6   704 – Lincoln Laboratory ETS, New Mexico MPS 13977
1999 10 13.47244 03 38 35.52 +23 58 14.2 19.7   704 – Lincoln Laboratory ETS, New Mexico MPS 13977
1999 10 14.32853 03 37 59.24 +24 01 04.2 19.4   704 – Lincoln Laboratory ETS, New Mexico MPS 15532
1999 10 14.34400 03 37 58.52 +24 01 07.3 19.5   704 – Lincoln Laboratory ETS, New Mexico MPS 15532
1999 10 14.35958 03 37 57.76 +24 01 11.1 19.4   704 – Lincoln Laboratory ETS, New Mexico MPS 15532
1999 10 14.37505 03 37 57.11 +24 01 13.6 19.6   704 – Lincoln Laboratory ETS, New Mexico MPS 15532
1999 11 03.33494 03 19 02.03 +24 45 46.1 18.5   704 – Lincoln Laboratory ETS, New Mexico MPS 7490
1999 11 03.35104 03 19 00.90 +24 45 46.4 18.8   704 – Lincoln Laboratory ETS, New Mexico MPS 7490
1999 11 03.36711 03 18 59.77 +24 45 48.9 18.8   704 – Lincoln Laboratory ETS, New Mexico MPS 7491
1999 11 03.38318 03 18 58.58 +24 45 49.6 18.7   704 – Lincoln Laboratory ETS, New Mexico MPS 7491
1999 11 04.34959 03 17 53.76 +24 46 49.3 19.2   704 – Lincoln Laboratory ETS, New Mexico MPS 7491
1999 11 04.36572 03 17 52.67 +24 46 51.0 19.2   704 – Lincoln Laboratory ETS, New Mexico MPS 7491
1999 11 04.38180 03 17 51.48 +24 46 51.7 19.6   704 – Lincoln Laboratory ETS, New Mexico MPS 7491
2001 02 15.24988 09 13 07.57 +39 15 37.4 19.3   704 – Lincoln Laboratory ETS, New Mexico MPS 26967
2001 02 15.26426 09 13 06.69 +39 15 37.5 19.5   704 – Lincoln Laboratory ETS, New Mexico MPS 26967
2001 02 15.27850 09 13 05.58 +39 15 38.6 19.2   704 – Lincoln Laboratory ETS, New Mexico MPS 26967
2001 02 15.29364 09 13 04.59 +39 15 39.4 18.9   704 – Lincoln Laboratory ETS, New Mexico MPS 26967
2001 02 16.24433 09 11 59.62 +39 16 27.2 19.6   704 – Lincoln Laboratory ETS, New Mexico MPS 26967
2001 02 16.25876 09 11 58.42 +39 16 29.0 19.4   704 – Lincoln Laboratory ETS, New Mexico MPS 26967
2001 02 16.27343 09 11 57.48 +39 16 28.2 19.1   704 – Lincoln Laboratory ETS, New Mexico MPS 26967
2001 02 17.22927 09 10 52.76 +39 17 00.9 19.1   704 – Lincoln Laboratory ETS, New Mexico MPS 26967
2001 02 17.24323 09 10 51.82 +39 17 02.1 19.3   704 – Lincoln Laboratory ETS, New Mexico MPS 26967
2001 02 17.25720 09 10 50.72 +39 17 00.7 19.3   704 – Lincoln Laboratory ETS, New Mexico MPS 26967
2001 02 17.27108 09 10 49.76 +39 17 01.7 19.1   704 – Lincoln Laboratory ETS, New Mexico MPS 26967
2001 02 17.28500 09 10 48.79 +39 17 02.6 19.5   704 – Lincoln Laboratory ETS, New Mexico MPS 26967
2003 09 29.31387 03 18 47.88 +19 32 06.0 20.2   704 – Lincoln Laboratory ETS, New Mexico MPS 86061
2003 09 29.32760 03 18 47.45 +19 32 08.3 19.6   704 – Lincoln Laboratory ETS, New Mexico MPS 86061
2003 09 29.34071 03 18 47.09 +19 32 12.6 20.4   704 – Lincoln Laboratory ETS, New Mexico MPS 86061
2003 09 29.35377 03 18 46.66 +19 32 14.2 20.1   704 – Lincoln Laboratory ETS, New Mexico MPS 86061
2003 10 16.39140 03 06 48.07 +20 16 14.8 18.8 R 699 – Lowell Observatory-LONEOS MPS 87698
2003 10 16.40893 03 06 47.04 +20 16 16.6   699 – Lowell Observatory-LONEOS MPS 87698
2003 10 16.42624 03 06 46.08 +20 16 18.3   699 – Lowell Observatory-LONEOS MPS 87698
2003 10 16.44372 03 06 45.08 +20 16 20.6   699 – Lowell Observatory-LONEOS MPS 87698
2003 10 22.31902 03 01 02.74 +20 25 15.7 18.8   704 – Lincoln Laboratory ETS, New Mexico MPS 87698
2003 10 22.33146 03 01 01.96 +20 25 17.1 19.2   704 – Lincoln Laboratory ETS, New Mexico MPS 87698
2003 10 22.34377 03 01 01.19 +20 25 17.8 19.6   704 – Lincoln Laboratory ETS, New Mexico MPS 87698
2003 10 22.35665 03 01 00.37 +20 25 18.2 19.6   704 – Lincoln Laboratory ETS, New Mexico MPS 87698
2003 10 22.36885 03 00 59.61 +20 25 20.5 19.1   704 – Lincoln Laboratory ETS, New Mexico MPS 87698
2003 10 22.43117 03 00 55.62 +20 25 23.8 19.2 V 691 – Steward Observatory, Kitt Peak-Spacewatch MPS 87698
2003 10 22.45762 03 00 53.97 +20 25 25.8 19.4 V 691 – Steward Observatory, Kitt Peak-Spacewatch MPS 87698
2003 10 22.48434 03 00 52.29 +20 25 27.6 19.3 V 691 – Steward Observatory, Kitt Peak-Spacewatch MPS 87698
2003 10 23.28403 03 00 03.04 +20 26 23.7 18.7 R 699 – Lowell Observatory-LONEOS MPS 87698
2003 10 23.31952 03 00 00.70 +20 26 26.6   699 – Lowell Observatory-LONEOS MPS 87698
2003 10 23.33952 02 59 59.46 +20 26 26.2   699 – Lowell Observatory-LONEOS MPS 87698
2003 10 23.35953 02 59 58.31 +20 26 28.3   699 – Lowell Observatory-LONEOS MPS 87698
2003 10 24.26863 02 59 01.22 +20 27 28.4 19.3   704 – Lincoln Laboratory ETS, New Mexico MPS 87698
2003 10 24.28101 02 59 00.37 +20 27 29.1 19.3   704 – Lincoln Laboratory ETS, New Mexico MPS 87698
2003 10 24.29308 02 58 59.64 +20 27 29.8 19.7   704 – Lincoln Laboratory ETS, New Mexico MPS 87698
2003 10 24.30489 02 58 58.85 +20 27 30.9 19.4   704 – Lincoln Laboratory ETS, New Mexico MPS 87698
2003 10 24.31691 02 58 58.09 +20 27 31.2 19.4   704 – Lincoln Laboratory ETS, New Mexico MPS 87698
2003 10 29.26159 02 53 36.47 +20 31 27.3 19.1   704 – Lincoln Laboratory ETS, New Mexico MPS 89264
2003 10 29.27474 02 53 35.55 +20 31 28.1 19.4   704 – Lincoln Laboratory ETS, New Mexico MPS 89264
2003 10 29.28700 02 53 34.74 +20 31 27.9 19.4   704 – Lincoln Laboratory ETS, New Mexico MPS 89264
2003 10 29.29877 02 53 33.92 +20 31 28.6 19.3   704 – Lincoln Laboratory ETS, New Mexico MPS 89264
2003 10 29.31122 02 53 33.12 +20 31 28.8 19.5   704 – Lincoln Laboratory ETS, New Mexico MPS 89264
2003 10 30.29708 02 52 27.21 +20 31 59.6 19.0   704 – Lincoln Laboratory ETS, New Mexico MPS 89264
2003 10 30.31039 02 52 26.34 +20 32 00.2 19.4   704 – Lincoln Laboratory ETS, New Mexico MPS 89264
2003 10 30.33542 02 52 24.57 +20 32 00.1 19.5   704 – Lincoln Laboratory ETS, New Mexico MPS 89264
2003 10 30.34788 02 52 23.75 +20 32 00.8 19.1   704 – Lincoln Laboratory ETS, New Mexico MPS 89264
2003 11 18.26530 02 31 24.75 +20 27 53.8 18.8   644 – Palomar Mountain/NEAT MPS 90875
2003 11 18.28616 02 31 23.42 +20 27 53.1 18.8   644 – Palomar Mountain/NEAT MPS 90875
2003 11 18.30689 02 31 22.11 +20 27 52.1 18.7   644 – Palomar Mountain/NEAT MPS 90875
2003 11 19.21038 02 30 26.69 +20 27 12.6 19.5 R 699 – Lowell Observatory-LONEOS MPS 91680
2003 11 19.22961 02 30 25.44 +20 27 11.4   699 – Lowell Observatory-LONEOS MPS 91680
2003 11 19.24871 02 30 24.25 +20 27 11.3   699 – Lowell Observatory-LONEOS MPS 91680
2003 11 19.26785 02 30 23.01 +20 27 09.9   699 – Lowell Observatory-LONEOS MPS 91680
2003 11 20.26588 02 29 22.62 +20 26 27.0 18.8   704 – Lincoln Laboratory ETS, New Mexico MPS 90875
2003 11 20.29083 02 29 21.11 +20 26 25.8 19.3   704 – Lincoln Laboratory ETS, New Mexico MPS 90875
2003 11 20.30335 02 29 20.30 +20 26 25.6 19.6   704 – Lincoln Laboratory ETS, New Mexico MPS 90875
2003 11 20.31604 02 29 19.54 +20 26 24.0 19.6   704 – Lincoln Laboratory ETS, New Mexico MPS 90875
2003 11 23.19883 02 26 31.48 +20 24 11.6 20.3 V 691 – Steward Observatory, Kitt Peak-Spacewatch MPS 91680
2003 11 23.24605 02 26 28.70 +20 24 09.2 20.1 V 691 – Steward Observatory, Kitt Peak-Spacewatch MPS 91680
2003 11 23.27394 02 26 27.07 +20 24 07.6 20.9 V 691 – Steward Observatory, Kitt Peak-Spacewatch MPS 91680
2003 11 24.19347 02 25 35.55 +20 23 25.1 18.9   704 – Lincoln Laboratory ETS, New Mexico MPS 91680
2003 11 24.20634 02 25 34.82 +20 23 24.6 18.9   704 – Lincoln Laboratory ETS, New Mexico MPS 91680
2003 11 24.21875 02 25 34.13 +20 23 24.0 19.4   704 – Lincoln Laboratory ETS, New Mexico MPS 91680
2003 11 24.23124 02 25 33.43 +20 23 23.4 19.4   704 – Lincoln Laboratory ETS, New Mexico MPS 91680
